Notices

What's New in latest Release from April 7th, 2021:

- Updated Glossary, including Speed of Maximum Gust, and Total Hourly Precipitation

- Updated national and regional climate services offices contacts and prices information

- Addition of station inventory lists for 1981-2010, 1971-2000, and 1961-1990 Normals.

If you haven't already, please take our survey and provide feedback about our website: https://eccc.sondage-survey.ca/f/LanguageSelection.aspx?s=442ca660-fcf1-47c0-95a9-59707d6fd709

Hourly Data Report for March 23, 2019

MIRAMICHI RCS
NEW BRUNSWICK
Current Station Operator: ECCC - MSC

47°00'34.000" N
65°27'54.000" W
33.00 m
8100989
71744
ACQ

Download Data

Hourly Data (March 2019)
Hourly Data Report for March 23, 2019
TIME
LST
Temp Definition
°C
Dew Point Definition
°C
Rel Hum Definition
%
Precip. Amount Definition
mm

Wind Dir Definition
10's deg

Wind Spd Definition
km/h
Visibility Definition
km
Stn Press Definition
kPa
Hmdx Definition


Wind Chill Definition


Weather Definition


00:00 0.5 0.0 97 1.0 4 13   98.02     LegendNANA
01:00 0.5 0.0 97 1.8 3 11   97.97     LegendNANA
02:00 0.6 0.0 96 2.0 3 11   97.89     LegendNANA
03:00 0.6 0.0 96 0.4 3 11   97.81     LegendNANA
04:00 0.6 0.1 97 0.3 4 9   97.77     LegendNANA
05:00 0.3 -0.1 97 0.6 3 3   97.77     LegendNANA
06:00 0.2 -0.1 98 0.5   0   97.75     LegendNANA
07:00 0.5 0.1 98 0.5   0   97.76     LegendNANA
08:00 0.7 0.2 96 0.4 35 3   97.80     LegendNANA
09:00 0.8 0.2 95 0.5 33 6   97.80     LegendNANA
10:00 1.5 0.3 92 0.0 35 10   97.83     LegendNANA
11:00 1.9 0.3 89 0.0 35 10   97.85     LegendNANA
12:00 2.1 0.2 87 0.0 36 12   97.90     LegendNANA
13:00 2.1 0.3 88 0.0 35 13   97.98     LegendNANA
14:00 2.4 0.6 88 0.0 34 12   98.06     LegendNANA
15:00 2.7 0.9 88 0.0 34 12   98.20     LegendNANA
16:00 2.8 0.0 82 0.0 33 18   98.32     LegendNANA
17:00 2.4 0.1 85 0.2 33 17   98.47     LegendNANA
18:00 2.0 -1.1 80 0.0 32 15   98.64     LegendNANA
19:00 1.8 -2.0 76 0.0 31 16   98.81     LegendNANA
20:00 1.5 -3.2 71 0.0 32 17   98.99     LegendNANA
21:00 1.2 -2.4 77 0.0 30 14   99.09     LegendNANA
22:00 1.5 -2.4 75 0.0 30 16   99.15     LegendNANA
23:00 2.1 -2.7 70 0.0 31 18   99.26     LegendNANA

Notes on Data Quality.

Legend

  • E = Estimated
  • M = Missing
  • NA = Not Available*
  • [empty] = Indicates an unobserved value
Date modified: